Location: Wilsall
(45.9940°N, 110.6590°W)
Time: 20:44:52
(UTC-06:00)

Daily predictions for brighter satellites

Satellite Brightness Start Highest point End
(mag) Time Altitude Azimuth Time Altitude Azimuth Time Altitude Azimuth
Meteor 1-29 4.0 20:44:48 10° N 20:48:09 51° WNW 20:51:31 10° SSW
Cosmos 1346 Rocket 2.9 20:47:28 10° N 20:51:22 58° ENE 20:55:17 10° SSE
Cosmos 1633 3.1 20:48:14 10° SSW 20:51:52 66° W 20:55:31 10° N
Cosmos 1536 3.2 20:49:31 10° SSW 20:53:29 68° W 20:57:30 10° N
ERS-1 Rocket 3.6 20:48:53 10° SE 20:53:31 39° ENE 20:58:10 10° N
RESURS DK-1 4.3 20:53:33 10° N 20:56:09 16° NE 20:58:46 10° E
NOSS 2-1 (D) 3.3 20:53:13 10° SSW 20:57:05 71° SE 21:01:36 10° NE
NOSS 2-1 (C) 3.4 20:54:14 10° SSW 20:58:07 71° SE 21:02:37 10° NE
Cosmos 1821 Rocket 4.0 20:53:19 10° S 20:59:26 86° E 21:05:34 10° N
Cosmos 1605 Rocket 4.2 20:56:12 10° SSE 21:02:21 55° E 21:08:27 10° NNE
Meteor 2-16 Rocket 4.4 21:00:45 10° S 21:06:48 80° E 21:12:55 10° N
Cosmos 2227 Rocket 2.2 21:02:27 10° NNW 21:08:09 78° ENE 21:13:48 10° SSE
YAOGAN 11 4.3 21:04:55 10° SSE 21:09:21 57° ENE 21:13:45 10° N
Cosmos 1500 4.4 21:09:16 12° SE 21:11:53 22° E 21:14:52 10° NE
ALOS 3.1 21:08:16 10° S 21:12:51 54° W 21:17:27 10° NNW
NOSS 2-1 (E) 3.5 21:10:08 10° SW 21:14:06 89° NW 21:18:49 10° NE
Meteor 1-5 Rocket 4.1 21:10:58 10° S 21:16:17 89° WNW 21:21:48 10° N
FENGYUN 3A 4.3 21:11:15 10° S 21:16:30 57° W 21:21:48 10° NNW
Cosmos 2082 3.7 21:15:11 10° NNW 21:20:50 89° ENE 21:26:27 10° SSE
Cosmos 1656 4.2 21:18:09 10° S 21:23:10 35° ESE 21:28:10 10° NE
Cosmos 2297 Rocket 2.2 21:18:19 10° NNW 21:24:00 75° ENE 21:28:59 14° SSE
Cosmos 1340 4.3 21:22:34 10° NNE 21:25:15 18° ENE 21:26:23 16° E
Lacrosse 5 2.5 21:22:11 10° NW 21:27:05 46° NNE 21:30:48 17° E
Cosmos 2123 Rocket 4.2 21:21:54 10° NNW 21:28:04 72° W 21:34:12 10° S
H-2A R/B 2.5 21:26:32 18° SE 21:29:11 42° ENE 21:33:06 10° N
Cosmos 1626 Rocket 3.5 21:26:42 10° N 21:31:09 82° E 21:35:31 10° S
deb Chang Zheng 4 4.3 21:27:15 10° NNE 21:31:19 34° E 21:34:29 15° SSE
Cosmos 1515 3.8 21:27:40 10° N 21:31:30 58° E 21:34:13 18° SSE
Cosmos 2208 Rocket 4.1 21:27:31 10° SSW 21:32:50 85° WNW 21:38:17 10° NNE
USA 215 3.8 21:29:23 13° E 21:35:00 51° NNE 21:41:18 10° NW
SPOT 5 3.4 21:31:47 18° SE 21:35:14 45° ENE 21:39:51 10° N
BREEZE-M TANK 3.6 21:23:25 10° WNW 21:36:27 69° SSW 21:38:58 22° ESE
Cosmos 1975 2.8 21:33:22 10° S 21:37:27 73° E 21:41:34 10° NNE
Cosmos 2298 Rocket 4.1 21:32:26 10° NNW 21:37:45 65° ENE 21:41:27 20° SE
Cosmos 1455 Rocket 3.8 21:33:37 10° SSW 21:37:52 55° WNW 21:42:10 10° N
Cosmos 1602 Rocket 3.6 21:34:38 10° N 21:39:09 83° W 21:43:33 10° S
Cosmos 1743 3.7 21:41:34 26° ESE 21:42:23 28° E 21:45:48 10° NNE
Lacrosse 5 rocket 1.3 21:43:49 10° NW 21:47:30 60° SW 21:49:06 30° SSE
Cosmos 1461 3.8 21:43:38 10° NW 21:47:30 42° WSW 21:50:13 17° S
YAOGAN 6 3.3 21:46:42 30° ESE 21:47:47 38° ENE 21:51:15 10° N
Tiangong 1 1.4 21:45:22 10° WSW 21:48:20 45° S 21:48:47 41° SSE
Cosmos 1459 Rocket 4.1 21:43:29 12° SSE 21:48:50 50° E 21:54:42 10° NNE
CZ-4 DEB 3.9 21:47:39 11° S 21:50:24 40° W 21:53:25 10° NNW
H-2A R/B 3.5 21:50:51 18° E 21:52:22 20° ENE 21:55:55 10° NNE
Cosmos 1066 Rocket 4.2 21:48:05 10° N 21:53:45 80° E 21:58:03 18° SSE
Envisat 3.1 21:51:26 15° S 21:55:44 80° WSW 22:00:51 10° NNW
OTV 4 2.8 21:54:12 10° SW 21:55:25 14° SSW 21:55:25 14° SSW
Cosmos 1937 Rocket 3.6 21:53:21 10° NNW 21:58:36 65° ENE 22:01:13 30° SE
PSLV R/B 3.6 21:59:10 42° ENE 21:59:12 42° ENE 22:02:07 10° N
MetOp-A 4.1 21:57:15 25° SSE 22:00:25 69° ENE 22:05:46 10° N
Cosmos 2058 Rocket 4.2 22:02:59 26° E 22:02:59 26° E 22:06:38 10° NNE
CZ-4 SHROUD 3.7 22:03:36 42° ENE 22:03:36 42° ENE 22:06:27 10° N
BREEZE-M DEB (TANK) 1.7 22:02:18 10° WNW 22:04:31 87° SSW 22:05:25 46° ESE
Cosmos 2150 Rocket 3.9 21:59:48 10° NNW 22:04:59 86° WSW 22:07:47 28° SSE
Cosmos 1697 Rocket 2.7 22:00:28 10° S 22:05:58 56° ESE 22:11:30 10° NNE
Cosmos 2278 4.3 22:00:29 10° SW 22:06:06 60° WNW 22:11:46 10° NNE
Cosmos 1939 Rocket 3.8 22:04:26 15° S 22:07:38 48° W 22:11:42 10° NNW
Cosmos 2084 3.3 22:04:36 10° NW 22:08:39 81° SW 22:09:58 43° SSE
DELTA 2 R/B (1) 4.2 22:03:48 10° WSW 22:08:54 38° SSW 22:10:34 31° SSE
SL-16 R/B 4.3 22:11:47 11° ENE 22:11:47 11° ENE 22:12:11 10° ENE
ASTEX 1 3.5 22:05:35 10° NNE 22:10:33 58° E 22:12:35 33° SSE
Cosmos 1802 Rocket 4.0 22:05:46 17° S 22:10:41 64° E 22:17:04 10° NNE
SPOT 1/Viking Rocket 3.7 22:08:45 33° SE 22:10:51 56° ENE 22:15:58 10° N
Geosat FO 4.5 22:08:48 10° NNE 22:12:30 74° ESE 22:14:27 26° SSW
NOAA 11 4.4 22:11:33 34° SE 22:13:46 57° ENE 22:19:08 10° N
Iridium 4 Rocket 4.4 22:08:53 10° NNW 22:13:55 46° W 22:18:29 10° SSW
SL-08 RB Rocket 4.2 22:13:21 37° ESE 22:14:25 44° ENE 22:18:51 10° N
Cosmos 990 Rocket 4.0 22:10:44 10° NNW 22:16:00 68° ENE 22:17:52 39° SE
Cosmos 1606 Rocket 3.7 22:15:20 46° SE 22:16:08 53° E 22:20:28 10° NNE
Cosmos 2369 4.5 22:13:33 10° SW 22:19:05 54° WNW 22:24:42 10° NNE
Terra 3.0 22:19:09 26° ENE 22:19:45 27° ENE 22:23:42 10° N
CZ-4B R/B 3.7 22:19:21 10° NNE 22:23:52 42° E 22:23:57 42° ESE
Cosmos 1980 Rocket 2.3 22:25:46 37° SSE 22:27:38 52° ESE 22:33:10 10° NE
Cosmos 2016 Rocket 3.8 22:28:04 27° S 22:31:32 77° E 22:37:44 10° N
Cosmos 1898 Rocket 4.2 22:27:26 10° NNW 22:32:33 49° WSW 22:35:11 26° SSW
ARGOS 3.1 22:31:03 44° SSE 22:32:50 79° ENE 22:38:15 10° NNW
RESURS DK-1 2.4 22:30:34 10° NNW 22:34:42 69° WSW 22:35:13 60° SSW
Cosmos 1666 3.5 22:37:39 39° NE 22:37:39 39° NE 22:40:19 10° NNE
Meteor 1-21 4.3 22:31:00 10° NNW 22:36:47 81° W 22:39:13 37° S
Cosmos 1125 Rocket 3.9 22:33:46 10° N 22:38:47 46° ENE 22:39:32 43° E
SL-24 R/B - RUBIN 2 4.5 22:33:52 10° SW 22:39:51 79° NW 22:46:29 10° NE
Cosmos 1726 Rocket 3.4 22:40:21 71° SSE 22:40:46 82° E 22:45:11 10° N
CZ-4C R/B 4.0 22:43:33 49° ENE 22:43:33 49° ENE 22:47:47 10° N
BREEZE-M DEB (TANK) 4.3 22:40:08 10° WNW 22:44:23 77° SSW 22:49:32 33° SE
Cosmos 2173 Rocket 4.3 22:38:27 11° SSW 22:44:39 66° W 22:50:58 10° N
Cosmos 1763 Rocket 3.3 22:44:50 62° SE 22:45:23 67° ESE 22:50:27 10° NNE
SL-19 R/B 4.1 22:44:00 10° NNE 22:49:36 88° WNW 22:51:51 37° SSW
Tsikada Rocket 4.0 22:49:03 10° N 22:55:31 86° E 22:57:24 49° SSE
Cosmos 2263 Rocket 3.1 22:50:28 10° NNW 22:55:32 34° NE 22:56:22 32° ENE
Cosmos 2322 Rocket 3.3 23:00:20 29° ENE 23:00:20 29° ENE 23:03:38 10° NE
Cosmos 1864 Rocket 4.3 22:57:09 49° S 22:58:55 82° E 23:05:05 10° N
Cosmos 1953 Rocket 4.3 22:55:18 10° NNW 22:59:35 47° W 23:00:21 42° SW
Cosmos 405 Rocket 4.1 22:57:18 10° N 22:59:40 32° NNE 22:59:40 32° NNE
Cosmos 1340 3.9 22:57:38 10° NNW 23:01:07 35° W 23:01:17 34° W
Cosmos 967 Rocket 4.5 22:54:58 10° NW 23:01:19 74° WSW 23:02:46 54° S
Cosmos 2360 4.1 23:01:40 66° SE 23:02:08 69° ESE 23:07:50 10° NNE
Cosmos 841 Rocket 3.3 23:04:41 72° S 23:05:15 87° ESE 23:10:30 10° NNE
H-2A R/B 4.2 23:03:40 15° SW 23:05:25 18° W 23:08:20 10° NW
Cosmos 2297 Rocket 4.4 23:03:45 10° WNW 23:07:22 18° W 23:10:49 11° SW
Meteor 2-9 Rocket 4.1 23:06:35 60° SSW 23:07:39 86° W 23:13:07 10° N
Cosmos 2227 4.4 23:03:25 10° NNW 23:09:07 63° WSW 23:10:03 55° SSW
Lacrosse 5 2.5 23:05:16 10° WNW 23:09:59 44° SW 23:09:59 44° SW
GP-B 4.1 23:06:16 10° NNE 23:09:18 37° NE 23:09:18 37° NE
USA 215 3.2 23:16:43 56° S 23:17:55 67° SW 23:24:27 10° NW
Cosmos 1725 Rocket 4.3 23:26:55 39° SW 23:29:06 60° WNW 23:35:18 10° N
Cosmos 2228 3.8 23:29:55 48° NW 23:29:55 48° NW 23:33:22 10° N
Cosmos 2346 Rocket 4.3 23:24:13 10° N 23:30:30 86° E 23:30:56 78° SSE
H-2A R/B 2.3 23:31:30 59° W 23:31:30 59° W 23:36:18 10° NNW
Cosmos 540 Rocket 4.4 23:34:10 38° NE 23:34:10 38° NE 23:37:28 10° NNE
GEOS 3 Rocket 3.8 23:30:39 10° NE 23:35:45 66° NW 23:37:09 46° WSW
Cosmos 372 Rocket 4.1 23:32:33 10° NNW 23:37:03 69° NNW 23:37:03 69° NNW
SL-16 R/B 2.4 23:53:37 63° NNE 23:53:37 63° NNE 23:58:22 10° NNE
